Hourly Weather Roundup
Issued by NWS Central Illinois

Home | Current Version | Previous Version | Text Only | Print | Product List | Glossary On
Versions: 1 2 3 4 5 6 7 8 9 10 11 12 13 14 15 16 17 18 19 20 21 22 23 24 25 26 27 28 29 30 31 32 33 34 35 36 37 38 39 40 41 42 43 44 45 46 47 48 49 50
000
NZUS43 KILX 282110
HWRILX

AREA WEATHER ROUNDUP
NATIONAL WEATHER SERVICE, LINCOLN IL
400 PM CDT TUE JUL 28 2015


CITY           SKY/WX    TMP DP  RH WIND       PRES   REMARKS
BLOOMINGTON    CLOUDY    74  72  93 S3        29.95F
CHAMPAIGN      TSTM      76  73  91 VRB3      29.96F
DANVILLE       MOSUNNY   87  75  68 CALM      29.93F HX  96
DECATUR        TSTM      76  72  87 NE7       29.96S
EFFINGHAM      MOSUNNY   92  71  51 S3        29.96S HX  98
FLORA          SUNNY     92  76  59 CALM      29.94F HX 103
GALESBURG      CLOUDY    84  78  82 SE6       29.90F HX  94
JACKSONVILLE   MOSUNNY   94  80  63 N5        29.91F HX 112
LACON          CLOUDY    77  70  80 S5        29.90F
LAWRENCEVILLE  PTSUNNY   93  77  59 VRB3      29.95S HX 107
LITCHFIELD     MOSUNNY   92  77  61 CALM      29.94F HX 104
$$


CITY           SKY/WX    TMP DP  RH WIND       PRES   REMARKS
LINCOLN        PTSUNNY   83  72  70 E9        29.93F HX  88
MACOMB         PTSUNNY   91  80  71 S5        29.93F HX 108
MATTOON        MOSUNNY   92  72  51 VRB5      29.95F HX  99
MT CARMEL AP   MOSUNNY   91  75  59 W3        29.95R HX 102
OLNEY-NOBLE AP SUNNY     90  77  66 CALM      29.95S HX 102
PARIS          CLOUDY    89  75  64 CALM      29.96F HX  99
PEORIA         PTSUNNY   83  73  72 SE7       29.91F HX  89
PONTIAC        CLOUDY    83  78  87 SE3       29.92F HX  93
RANTOUL        PTSUNNY   82  72  72 W9        29.95F THUNDER HX  86
ROBINSON       MOSUNNY   89  75  63 W3        29.95F HX  99
SPRINGFIELD    MOSUNNY   94  79  61 W6        29.93F HX 111
TAYLORVILLE    MOSUNNY   90  77  66 CALM      29.94F HX 102
$$

...REGIONAL REPORTS...


CITY           SKY/WX    TMP DP  RH WIND       PRES   REMARKS
CHICAGO O`HARE PTSUNNY   90  68  48 SE7       29.87F HX  94
KANKAKEE       MOSUNNY   88  71  57 CALM      29.92F HX  94
MOLINE         CLOUDY    82  75  79 S5        29.88F HX  89
MOUNT STERLING NOT AVBL
MOUNT VERNON   MOSUNNY   93  75  55 CALM      29.93F HX 104
PITTSFIELD     MOSUNNY   93  77  60 CALM      29.93S HX 107
QUINCY         SUNNY     92  78  63 S8        29.91F HX 107
ROCKFORD       CLOUDY    84  73  69 S9        29.90R HX  90
$$


CITY           SKY/WX    TMP DP  RH WIND       PRES   REMARKS
BURLINGTON     PTSUNNY   87  77  72 E8        29.90F HX  99
CEDAR RAPIDS   CLOUDY    78  75  90 SW12      29.92R HX  81
DES MOINES     CLOUDY    88  74  63 N3        29.89R HX  96
KIRKSVILLE     MOSUNNY   93  74  53 SW10      29.92R HX 103
OTTUMWA        CLOUDY    88  80  77 S10       29.87S HX 104
ST LOUIS       MOSUNNY   99  75  46 W6        29.92F HX 112
$$


CITY           SKY/WX    TMP DP  RH WIND       PRES   REMARKS
TERRE HAUTE    CLOUDY    89  76  65 N3        29.95F HX 100
EVANSVILLE     MOSUNNY   93  77  59 NW5       29.94F HX 107
INDIANAPOLIS   PTSUNNY   90  71  53 W13       29.95S HX  96
LAFAYETTE      MOSUNNY   89  73  59 W6        29.95F HX  97
MADISON        CLOUDY    84  71  65 S12       29.89R HX  89
MILWAUKEE      PTSUNNY   79  66  64 SE17G23   29.88F HX  81
$$




USA.gov is the U.S. government's official web portal to all federal, state and local government web resources and services.